Weather History for Phoenix Deer Valley, AZ

Change the Weather History Date:

Friday, September 20, 2013

  Actual Average Record
Temperature  
Mean Temperature 86 °F -  
Max Temperature 99 °F 94 °F 102 °F (2010)
Min Temperature 72 °F 72 °F 64 °F (1996)
Cooling Degree Days 20    
Growing Degree Days 36 (Base 50)    
Moisture  
Dew Point 43 °F    
Average Humidity 23    
Maximum Humidity 35    
Minimum Humidity 15    
Precipitation  
Precipitation 0.00 in - - ()
Sea Level Pressure  
Sea Level Pressure 29.69 in    
Wind  
Wind Speed 3 mph (WNW)    
Max Wind Speed 13 mph    
Max Gust Speed -    
Visibility 10 miles    
Events      
Averages and records for this station are not official NWS values.
T = Trace of Precipitation, MM = Missing Value Source: NWS Daily Summary

Daily Weather History Graph

Daily Weather History Graph

Search for Another Location

Airport:

Trip Planner

Search our weather history database for the weather conditions in past years. The results will help you decide how hot, cold, wet, or windy it might be!

Date:

Astronomy

Sep. 20, 2013 Rise Set
Actual Time 6:15 AM MST 6:27 PM MST
Civil Twilight 5:50 AM MST 6:52 PM MST
Nautical Twilight 5:21 AM MST 7:21 PM MST
Astronomical Twilight 4:51 AM MST 7:50 PM MST
Moon 7:10 PM MST (9/20) 7:28 AM MST (9/20)
Length of Visible Light 13h 01m
Length of Day
12h 12m
Full, 98% of the Moon is Illuminated
Sep 20
Full
Sep 26
Last Quarter
Oct 4
New
Oct 11
First Quarter
Oct 18
Full

Hourly Weather History & Observations

Time (MST) Temp. Dew Point Humidity Pressure Visibility Wind Dir Wind Speed Gust Speed Precip Events Conditions
12:53 AM 75.9 °F 37.9 °F 25% 29.68 in 10.0 mi Calm Calm - N/A   Clear
1:53 AM 75.9 °F 37.0 °F 24% 29.68 in 10.0 mi North 5.8 mph - N/A   Clear
2:53 AM 75.0 °F 37.9 °F 26% 29.67 in 10.0 mi NNE 3.5 mph - N/A   Clear
3:53 AM 72.0 °F 39.9 °F 31% 29.68 in 10.0 mi Calm Calm - N/A   Clear
4:53 AM 75.0 °F 37.9 °F 26% 29.68 in 10.0 mi NNE 5.8 mph - N/A   Clear
5:53 AM 73.9 °F 39.0 °F 28% 29.70 in 10.0 mi NNE 4.6 mph - N/A   Clear
6:53 AM 73.0 °F 42.1 °F 33% 29.73 in 10.0 mi Calm Calm - N/A   Clear
7:53 AM 79.0 °F 46.0 °F 31% 29.74 in 10.0 mi Calm Calm - N/A   Clear
8:53 AM 86.0 °F 39.0 °F 19% 29.74 in 10.0 mi NW 3.5 mph - N/A   Clear
9:53 AM 91.0 °F 39.9 °F 17% 29.75 in 10.0 mi WNW 3.5 mph - N/A   Clear
10:53 AM 93.0 °F 39.9 °F 16% 29.73 in 10.0 mi Calm Calm - N/A   Clear
11:53 AM 96.1 °F 42.1 °F 15% 29.72 in 10.0 mi Calm Calm - N/A   Clear
12:53 PM 98.1 °F 45.0 °F 16% 29.70 in 10.0 mi SSW 5.8 mph - N/A   Clear
1:53 PM 98.1 °F 44.1 °F 16% 29.68 in 10.0 mi Variable 3.5 mph - N/A   Clear
2:53 PM 98.1 °F 46.9 °F 18% 29.67 in 10.0 mi Calm Calm - N/A   Clear
3:53 PM 98.1 °F 46.0 °F 17% 29.65 in 10.0 mi SSW 3.5 mph - N/A   Clear
4:53 PM 99.0 °F 46.9 °F 17% 29.64 in 10.0 mi SW 6.9 mph - N/A   Clear
5:53 PM 97.0 °F 44.1 °F 16% 29.64 in 10.0 mi SW 12.7 mph - N/A   Clear
6:53 PM 95.0 °F 45.0 °F 18% 29.65 in 10.0 mi SW 8.1 mph - N/A   Clear
7:53 PM 91.9 °F 45.0 °F 20% 29.67 in 10.0 mi West 4.6 mph - N/A   Clear
8:53 PM 90.0 °F 46.0 °F 22% 29.69 in 10.0 mi Calm Calm - N/A   Clear
9:53 PM 87.1 °F 48.0 °F 26% 29.70 in 10.0 mi Calm Calm - N/A   Clear
10:53 PM 84.9 °F 48.0 °F 28% 29.70 in 10.0 mi NE 3.5 mph - N/A   Clear
11:53 PM 81.0 °F 51.1 °F 35% 29.70 in 10.0 mi Calm Calm - N/A   Clear